| time (UTC) | temp C | wind direction | speed KPH | gust KPH | rain 1hr cm | rain 24hr cm | rain mn cm | humidity % | barometer mb |
| 20260506212751 | 17 | 305 | 4.8 | 8.0 | 0.00 | 0.00 | 0.00 | 85 | 1015.8 |
| 20260506212028 | 17 | 305 | 4.8 | 8.0 | 0.00 | 0.00 | 0.00 | 85 | 1015.9 |
| 20260506211529 | 17 | 305 | 3.2 | 8.0 | 0.00 | 0.00 | 0.00 | 85 | 1015.9 |
| 20260506211029 | 17 | 305 | 3.2 | 8.0 | 0.00 | 0.00 | 0.00 | 85 | 1015.9 |
| 20260506210528 | 17 | 299 | 4.8 | 8.0 | 0.00 | 0.00 | 0.00 | 85 | 1015.9 |
| 20260506210029 | 17 | 303 | 4.8 | 9.7 | 0.00 | 0.00 | 0.00 | 85 | 1015.9 |
| 20260506205527 | 17 | 297 | 4.8 | 9.7 | 0.00 | 0.00 | 0.00 | 84 | 1016.1 |
| 20260506205027 | 17 | 273 | 3.2 | 8.0 | 0.00 | 0.00 | 0.00 | 84 | 1016.1 |
| 20260506204527 | 17 | 273 | 3.2 | 6.4 | 0.00 | 0.00 | 0.00 | 83 | 1016.0 |
| 20260506204024 | 17 | 273 | 3.2 | 6.4 | 0.00 | 0.00 | 0.00 | 83 | 1016.0 |
| 20260506203525 | 17 | 273 | 3.2 | 6.4 | 0.00 | 0.00 | 0.00 | 83 | 1015.9 |
| 20260506203019 | 17 | 273 | 1.6 | 4.8 | 0.00 | 0.00 | 0.00 | 83 | 1015.8 |
| 20260506202513 | 17 | 273 | 3.2 | 8.0 | 0.00 | 0.00 | 0.00 | 83 | 1015.8 |
| 20260506202013 | 17 | 273 | 3.2 | 8.0 | 0.00 | 0.00 | 0.00 | 83 | 1015.8 |
| 20260506201732 | 17 | 308 | 3.2 | 6.4 | 0.00 | 0.00 | 0.00 | 83 | 1015.7 |
| 20260506201012 | 17 | 301 | 1.6 | 6.4 | 0.00 | 0.00 | 0.00 | 83 | 1015.7 |
| 20260506200512 | 17 | 254 | 1.6 | 3.2 | 0.00 | 0.00 | 0.00 | 83 | 1015.7 |
| 20260506200013 | 17 | 253 | 1.6 | 6.4 | 0.00 | 0.00 | 0.00 | 82 | 1015.7 |
| 20260506195513 | 17 | 264 | 1.6 | 6.4 | 0.00 | 0.00 | 0.00 | 82 | 1015.8 |
| 20260506195013 | 17 | 259 | 1.6 | 4.8 | 0.00 | 0.00 | 0.00 | 83 | 1015.6 |
| 20260506194512 | 17 | 258 | 1.6 | 3.2 | 0.00 | 0.00 | 0.00 | 83 | 1015.5 |
| 20260506194012 | 17 | 258 | 1.6 | 3.2 | 0.00 | 0.00 | 0.00 | 82 | 1015.4 |
| 20260506193512 | 17 | 258 | 1.6 | 3.2 | 0.00 | 0.00 | 0.00 | 82 | 1015.4 |
| 20260506193013 | 17 | 258 | 1.6 | 3.2 | 0.00 | 0.00 | 0.00 | 82 | 1015.4 |
| 20260506192513 | 17 | 226 | 1.6 | 3.2 | 0.00 | 0.00 | 0.00 | 82 | 1015.4 |
| 20260506192012 | 17 | 226 | 1.6 | 3.2 | 0.00 | 0.00 | 0.00 | 82 | 1015.3 |
| 20260506191512 | 17 | 226 | 1.6 | 3.2 | 0.00 | 0.00 | 0.00 | 82 | 1015.3 |
| 20260506191013 | 17 | 226 | 1.6 | 3.2 | 0.00 | 0.00 | 0.00 | 81 | 1015.3 |
| 20260506190738 | 17 | 220 | 0.0 | 3.2 | 0.00 | 0.00 | 0.00 | 82 | 1015.3 |
| 20260506190013 | 17 | 220 | 1.6 | 4.8 | 0.00 | 0.00 | 0.00 | 81 | 1015.3 |
| 20260506185513 | 18 | 220 | 1.6 | 4.8 | 0.00 | 0.00 | 0.00 | 81 | 1015.2 |
| 20260506185013 | 18 | 221 | 0.0 | 3.2 | 0.00 | 0.00 | 0.00 | 81 | 1015.2 |
| 20260506184512 | 18 | 221 | 0.0 | 3.2 | 0.00 | 0.00 | 0.00 | 82 | 1015.1 |
| 20260506184013 | 18 | 221 | 0.0 | 3.2 | 0.00 | 0.00 | 0.00 | 81 | 1015.1 |
| 20260506183512 | 18 | 97 | 1.6 | 4.8 | 0.00 | 0.00 | 0.00 | 82 | 1015.0 |
| 20260506183012 | 18 | 97 | 0.0 | 4.8 | 0.00 | 0.00 | 0.00 | 82 | 1015.0 |
| 20260506182513 | 18 | 197 | 0.0 | 4.8 | 0.00 | 0.00 | 0.00 | 82 | 1014.9 |
| 20260506182012 | 18 | 198 | 1.6 | 4.8 | 0.00 | 0.00 | 0.00 | 81 | 1014.9 |
| 20260506181512 | 18 | 160 | 1.6 | 4.8 | 0.00 | 0.00 | 0.00 | 81 | 1014.8 |
| 20260506181012 | 18 | 150 | 3.2 | 4.8 | 0.00 | 0.00 | 0.00 | 81 | 1014.8 |
| 20260506180512 | 18 | 153 | 1.6 | 4.8 | 0.00 | 0.00 | 0.00 | 81 | 1014.7 |
| 20260506180012 | 18 | 103 | 1.6 | 8.0 | 0.00 | 0.00 | 0.00 | 81 | 1014.6 |
| 20260506175734 | 18 | 103 | 1.6 | 8.0 | 0.00 | 0.00 | 0.00 | 81 | 1014.5 |
| 20260506175010 | 18 | 123 | 1.6 | 8.0 | 0.00 | 0.00 | 0.00 | 81 | 1014.5 |
| 20260506174728 | 18 | 216 | 3.2 | 9.7 | 0.00 | 0.00 | 0.00 | 80 | 1014.4 |
| 20260506173957 | 18 | 140 | 3.2 | 11.3 | 0.00 | 0.00 | 0.00 | 80 | 1014.3 |
| 20260506173452 | 18 | 160 | 1.6 | 11.3 | 0.00 | 0.00 | 0.00 | 79 | 1014.3 |
| 20260506172945 | 18 | 205 | 1.6 | 11.3 | 0.00 | 0.00 | 0.00 | 79 | 1014.3 |
| 20260506172440 | 19 | 205 | 4.8 | 11.3 | 0.00 | 0.00 | 0.00 | 78 | 1014.3 |
| 20260506171933 | 19 | 95 | 4.8 | 11.3 | 0.00 | 0.00 | 0.00 | 77 | 1014.2 |
| 20260506171427 | 19 | 141 | 3.2 | 11.3 | 0.00 | 0.00 | 0.00 | 75 | 1014.2 |
| 20260506170925 | 20 | 141 | 4.8 | 11.3 | 0.00 | 0.00 | 0.00 | 75 | 1014.2 |
| 20260506170425 | 20 | 217 | 6.4 | 11.3 | 0.00 | 0.00 | 0.00 | 73 | 1014.1 |
| 20260506165924 | 20 | 174 | 6.4 | 11.3 | 0.00 | 0.00 | 0.00 | 72 | 1014.1 |
| 20260506165422 | 20 | 148 | 6.4 | 16.1 | 0.00 | 0.00 | 0.00 | 71 | 1014.1 |
| 20260506164923 | 21 | 220 | 4.8 | 16.1 | 0.00 | 0.00 | 0.00 | 70 | 1014.1 |
| 20260506164423 | 21 | 162 | 4.8 | 12.9 | 0.00 | 0.00 | 0.00 | 70 | 1014.1 |
| 20260506163920 | 21 | 234 | 6.4 | 12.9 | 0.00 | 0.00 | 0.00 | 69 | 1014.1 |
| 20260506163420 | 21 | 207 | 6.4 | 16.1 | 0.00 | 0.00 | 0.00 | 69 | 1014.1 |
| 20260506162921 | 21 | 224 | 8.0 | 20.9 | 0.00 | 0.00 | 0.00 | 69 | 1014.1 |
| 20260506162419 | 21 | 198 | 8.0 | 20.9 | 0.00 | 0.00 | 0.00 | 69 | 1014.1 |
| 20260506161919 | 21 | 224 | 4.8 | 16.1 | 0.00 | 0.00 | 0.00 | 66 | 1014.1 |
| 20260506161418 | 22 | 230 | 6.4 | 14.5 | 0.00 | 0.00 | 0.00 | 65 | 1014.1 |
| 20260506160917 | 22 | 208 | 6.4 | 14.5 | 0.00 | 0.00 | 0.00 | 64 | 1014.1 |
| 20260506160417 | 22 | 199 | 6.4 | 14.5 | 0.00 | 0.00 | 0.00 | 62 | 1014.1 |
| 20260506155916 | 22 | 254 | 8.0 | 14.5 | 0.00 | 0.00 | 0.00 | 60 | 1014.1 |
| 20260506155416 | 22 | 191 | 6.4 | 12.9 | 0.00 | 0.00 | 0.00 | 59 | 1014.0 |
| 20260506154916 | 23 | 202 | 6.4 | 12.9 | 0.00 | 0.00 | 0.00 | 58 | 1014.1 |
| 20260506154410 | 23 | 209 | 6.4 | 12.9 | 0.00 | 0.00 | 0.00 | 57 | 1014.2 |
| 20260506153903 | 23 | 224 | 6.4 | 14.5 | 0.00 | 0.00 | 0.00 | 57 | 1014.1 |
| 20260506153357 | 23 | 204 | 6.4 | 14.5 | 0.00 | 0.00 | 0.00 | 57 | 1014.2 |
| 20260506152852 | 23 | 153 | 4.8 | 14.5 | 0.00 | 0.00 | 0.00 | 55 | 1014.2 |
| 20260506152345 | 23 | 206 | 4.8 | 9.7 | 0.00 | 0.00 | 0.00 | 55 | 1014.2 |
| 20260506151840 | 23 | 258 | 4.8 | 9.7 | 0.00 | 0.00 | 0.00 | 54 | 1014.3 |
| 20260506151333 | 23 | 223 | 6.4 | 12.9 | 0.00 | 0.00 | 0.00 | 54 | 1014.2 |
| 20260506150829 | 23 | 218 | 6.4 | 14.5 | 0.00 | 0.00 | 0.00 | 54 | 1014.2 |
| 20260506150322 | 23 | 183 | 4.8 | 12.9 | 0.00 | 0.00 | 0.00 | 53 | 1014.3 |
| 20260506145816 | 24 | 202 | 4.8 | 12.9 | 0.00 | 0.00 | 0.00 | 52 | 1014.2 |
| 20260506145310 | 24 | 185 | 8.0 | 17.7 | 0.00 | 0.00 | 0.00 | 52 | 1014.3 |
| 20260506144804 | 24 | 213 | 6.4 | 17.7 | 0.00 | 0.00 | 0.00 | 51 | 1014.3 |
| 20260506144258 | 25 | 224 | 4.8 | 12.9 | 0.00 | 0.00 | 0.00 | 50 | 1014.3 |
| 20260506143752 | 24 | 208 | 6.4 | 14.5 | 0.00 | 0.00 | 0.00 | 50 | 1014.3 |
| 20260506143246 | 24 | 205 | 6.4 | 16.1 | 0.00 | 0.00 | 0.00 | 50 | 1014.3 |
| 20260506142740 | 24 | 233 | 6.4 | 16.1 | 0.00 | 0.00 | 0.00 | 50 | 1014.3 |
| 20260506142234 | 24 | 152 | 8.0 | 19.3 | 0.00 | 0.00 | 0.00 | 50 | 1014.4 |
| 20260506141727 | 25 | 274 | 8.0 | 19.3 | 0.00 | 0.00 | 0.00 | 48 | 1014.4 |
| 20260506141222 | 25 | 209 | 6.4 | 17.7 | 0.00 | 0.00 | 0.00 | 47 | 1014.4 |
| 20260506140716 | 25 | 203 | 4.8 | 17.7 | 0.00 | 0.00 | 0.00 | 45 | 1014.4 |
| 20260506140211 | 25 | 90 | 6.4 | 12.9 | 0.00 | 0.00 | 0.00 | 45 | 1014.4 |
| 20260506135704 | 25 | 233 | 6.4 | 14.5 | 0.00 | 0.00 | 0.00 | 47 | 1014.4 |
| 20260506135158 | 25 | 188 | 6.4 | 16.1 | 0.00 | 0.00 | 0.00 | 46 | 1014.5 |
| 20260506134652 | 25 | 219 | 6.4 | 16.1 | 0.00 | 0.00 | 0.00 | 46 | 1014.4 |
| 20260506134145 | 25 | 212 | 6.4 | 16.1 | 0.00 | 0.00 | 0.00 | 47 | 1014.4 |
| 20260506133640 | 24 | 209 | 8.0 | 16.1 | 0.00 | 0.00 | 0.00 | 48 | 1014.4 |
| 20260506133133 | 25 | 249 | 6.4 | 19.3 | 0.00 | 0.00 | 0.00 | 48 | 1014.6 |
| 20260506132629 | 25 | 211 | 8.0 | 19.3 | 0.00 | 0.00 | 0.00 | 47 | 1014.6 |
| 20260506132345 | 24 | 236 | 8.0 | 17.7 | 0.00 | 0.00 | 0.00 | 46 | 1014.6 |
| 20260506131616 | 24 | 148 | 6.4 | 17.7 | 0.00 | 0.00 | 0.00 | 48 | 1014.7 |
| 20260506131110 | 25 | 202 | 8.0 | 17.7 | 0.00 | 0.00 | 0.00 | 46 | 1014.8 |
| 20260506130827 | 25 | 236 | 6.4 | 16.1 | 0.00 | 0.00 | 0.00 | 46 | 1014.7 |
| 20260506130057 | 25 | 218 | 6.4 | 16.1 | 0.00 | 0.00 | 0.00 | 45 | 1014.8 |
| 20260506125551 | 25 | 278 | 6.4 | 16.1 | 0.00 | 0.00 | 0.00 | 45 | 1014.8 |
| 20260506125044 | 25 | 188 | 4.8 | 14.5 | 0.00 | 0.00 | 0.00 | 45 | 1014.8 |
| 20260506124538 | 25 | 154 | 6.4 | 14.5 | 0.00 | 0.00 | 0.00 | 45 | 1014.9 |
| 20260506124032 | 25 | 233 | 6.4 | 12.9 | 0.00 | 0.00 | 0.00 | 46 | 1015.0 |
| 20260506123526 | 25 | 226 | 6.4 | 14.5 | 0.00 | 0.00 | 0.00 | 47 | 1015.0 |
| 20260506123240 | 24 | 133 | 8.0 | 14.5 | 0.00 | 0.00 | 0.00 | 47 | 1015.0 |
| 20260506122514 | 24 | 274 | 8.0 | 16.1 | 0.00 | 0.00 | 0.00 | 47 | 1015.0 |
| 20260506122008 | 24 | 248 | 8.0 | 19.3 | 0.00 | 0.00 | 0.00 | 47 | 1015.1 |
| 20260506121502 | 24 | 216 | 6.4 | 19.3 | 0.00 | 0.00 | 0.00 | 46 | 1015.1 |
| 20260506121445 | 25 | 300 | 4.8 | 14.5 | 0.00 | 0.00 | 0.00 | 46 | 1015.2 |
| 20260506120456 | 25 | 250 | 3.2 | 14.5 | 0.00 | 0.00 | 0.00 | 45 | 1015.2 |
| 20260506120212 | 25 | 221 | 3.2 | 9.7 | 0.00 | 0.00 | 0.00 | 44 | 1015.2 |
| 20260506115720 | 24 | 246 | 4.8 | 11.3 | 0.00 | 0.00 | 0.00 | 46 | 1015.3 |
| 20260506114952 | 23 | 278 | 6.4 | 14.5 | 0.00 | 0.00 | 0.00 | 48 | 1015.3 |
| 20260506114452 | 23 | 218 | 6.4 | 14.5 | 0.00 | 0.00 | 0.00 | 49 | 1015.4 |
| 20260506113951 | 23 | 276 | 4.8 | 12.9 | 0.00 | 0.00 | 0.00 | 48 | 1015.5 |
| 20260506113450 | 23 | 223 | 6.4 | 12.9 | 0.00 | 0.00 | 0.00 | 50 | 1015.5 |
| 20260506112950 | 23 | 212 | 4.8 | 12.9 | 0.00 | 0.00 | 0.00 | 49 | 1015.5 |
| 20260506112450 | 23 | 264 | 4.8 | 12.9 | 0.00 | 0.00 | 0.00 | 52 | 1015.6 |
| 20260506111950 | 22 | 257 | 4.8 | 12.9 | 0.00 | 0.00 | 0.00 | 53 | 1015.6 |
| 20260506111450 | 22 | 241 | 6.4 | 12.9 | 0.00 | 0.00 | 0.00 | 53 | 1015.7 |
| 20260506111217 | 22 | 242 | 6.4 | 12.9 | 0.00 | 0.00 | 0.00 | 52 | 1015.7 |
| 20260506110450 | 22 | 256 | 8.0 | 12.9 | 0.00 | 0.00 | 0.00 | 50 | 1015.8 |
| 20260506110214 | 22 | 239 | 6.4 | 11.3 | 0.00 | 0.00 | 0.00 | 50 | 1015.7 |
| 20260506105449 | 22 | 231 | 6.4 | 12.9 | 0.00 | 0.00 | 0.00 | 50 | 1015.7 |
| 20260506104950 | 22 | 263 | 4.8 | 12.9 | 0.00 | 0.00 | 0.00 | 49 | 1015.7 |
| 20260506104450 | 22 | 230 | 6.4 | 12.9 | 0.00 | 0.00 | 0.00 | 49 | 1015.8 |
| 20260506103948 | 22 | 271 | 6.4 | 12.9 | 0.00 | 0.00 | 0.00 | 48 | 1015.8 |
| 20260506103448 | 22 | 203 | 6.4 | 16.1 | 0.00 | 0.00 | 0.00 | 47 | 1015.8 |
| 20260506102948 | 22 | 94 | 8.0 | 16.1 | 0.00 | 0.00 | 0.00 | 47 | 1015.9 |
| 20260506102448 | 22 | 235 | 8.0 | 16.1 | 0.00 | 0.00 | 0.00 | 42 | 1015.9 |
| 20260506101948 | 22 | 201 | 6.4 | 14.5 | 0.00 | 0.00 | 0.00 | 43 | 1016.0 |
| 20260506101705 | 22 | 257 | 4.8 | 11.3 | 0.00 | 0.00 | 0.00 | 40 | 1016.0 |
| 20260506100948 | 22 | 265 | 4.8 | 12.9 | 0.00 | 0.00 | 0.00 | 39 | 1016.0 |
| 20260506100448 | 22 | 288 | 4.8 | 12.9 | 0.00 | 0.00 | 0.00 | 40 | 1016.1 |
| 20260506100215 | 22 | 266 | 3.2 | 9.7 | 0.00 | 0.00 | 0.00 | 40 | 1016.2 |
| 20260506095448 | 22 | 236 | 4.8 | 11.3 | 0.00 | 0.00 | 0.00 | 40 | 1016.2 |
| 20260506094948 | 22 | 219 | 4.8 | 11.3 | 0.00 | 0.00 | 0.00 | 42 | 1016.3 |
| 20260506094706 | 22 | 229 | 3.2 | 9.7 | 0.00 | 0.00 | 0.00 | 45 | 1016.3 |
| 20260506094214 | 22 | 216 | 3.2 | 9.7 | 0.00 | 0.00 | 0.00 | 45 | 1016.3 |
| 20260506093444 | 22 | 209 | 4.8 | 11.3 | 0.00 | 0.00 | 0.00 | 45 | 1016.3 |
| 20260506092943 | 21 | 212 | 4.8 | 11.3 | 0.00 | 0.00 | 0.00 | 43 | 1016.2 |
| 20260506092443 | 21 | 264 | 4.8 | 8.0 | 0.00 | 0.00 | 0.00 | 47 | 1016.2 |
| 20260506091943 | 21 | 258 | 4.8 | 8.0 | 0.00 | 0.00 | 0.00 | 48 | 1016.2 |
| 20260506091701 | 21 | 253 | 4.8 | 8.0 | 0.00 | 0.00 | 0.00 | 52 | 1016.2 |
| 20260506090943 | 21 | 269 | 4.8 | 9.7 | 0.00 | 0.00 | 0.00 | 51 | 1016.3 |
| 20260506090443 | 21 | 259 | 6.4 | 9.7 | 0.00 | 0.00 | 0.00 | 51 | 1016.2 |
| 20260506085944 | 21 | 320 | 6.4 | 9.7 | 0.00 | 0.00 | 0.00 | 51 | 1016.2 |
| 20260506085444 | 21 | 302 | 4.8 | 8.0 | 0.00 | 0.00 | 0.00 | 51 | 1016.2 |
| 20260506084943 | 21 | 272 | 4.8 | 9.7 | 0.00 | 0.00 | 0.00 | 53 | 1016.2 |
| 20260506084443 | 21 | 271 | 4.8 | 9.7 | 0.00 | 0.00 | 0.00 | 53 | 1016.3 |
| 20260506084203 | 21 | 245 | 3.2 | 8.0 | 0.00 | 0.00 | 0.00 | 55 | 1016.3 |
| 20260506083443 | 21 | 255 | 3.2 | 8.0 | 0.00 | 0.00 | 0.00 | 56 | 1016.2 |
| 20260506082941 | 20 | 215 | 3.2 | 6.4 | 0.00 | 0.00 | 0.00 | 56 | 1016.3 |
| 20260506082704 | 20 | 261 | 3.2 | 6.4 | 0.00 | 0.00 | 0.00 | 57 | 1016.2 |
| 20260506081939 | 20 | 210 | 3.2 | 6.4 | 0.00 | 0.00 | 0.00 | 58 | 1016.2 |
| 20260506081437 | 20 | 201 | 3.2 | 6.4 | 0.00 | 0.00 | 0.00 | 60 | 1016.2 |
| 20260506080937 | 20 | 212 | 3.2 | 6.4 | 0.00 | 0.00 | 0.00 | 62 | 1016.2 |
| 20260506080653 | 20 | 272 | 3.2 | 6.4 | 0.00 | 0.00 | 0.00 | 61 | 1016.1 |
| 20260506073429 | 18 | 278 | 3.2 | 8.0 | 0.00 | 0.00 | 0.00 | 64 | 1016.1 |
| 20260506072927 | 18 | 281 | 3.2 | 8.0 | 0.00 | 0.00 | 0.00 | 66 | 1016.1 |
| 20260506072425 | 18 | 270 | 3.2 | 6.4 | 0.00 | 0.00 | 0.00 | 66 | 1016.0 |
| 20260506071925 | 18 | 259 | 1.6 | 6.4 | 0.00 | 0.00 | 0.00 | 67 | 1016.0 |
| 20260506071427 | 18 | 304 | 1.6 | 3.2 | 0.00 | 0.00 | 0.00 | 66 | 1016.0 |
| 20260506070924 | 18 | 304 | 1.6 | 4.8 | 0.00 | 0.00 | 0.00 | 67 | 1016.1 |
| 20260506070421 | 18 | 304 | 3.2 | 4.8 | 0.00 | 0.00 | 0.00 | 66 | 1016.1 |
| 20260506062409 | 17 | 253 | 3.2 | 6.4 | 0.00 | 0.00 | 0.00 | 68 | 1016.4 |
| 20260506061901 | 17 | 255 | 3.2 | 6.4 | 0.00 | 0.00 | 0.00 | 68 | 1016.4 |
| 20260506061836 | 17 | 267 | 1.6 | 6.4 | 0.00 | 0.00 | 0.00 | 70 | 1016.3 |
| 20260506060849 | 17 | 266 | 3.2 | 6.4 | 0.00 | 0.00 | 0.00 | 70 | 1016.3 |
| 20260506060601 | 17 | 265 | 3.2 | 6.4 | 0.00 | 0.00 | 0.00 | 69 | 1016.3 |
| 20260506051242 | 17 | 103 | 0.0 | 3.2 | 0.00 | 0.00 | 0.00 | 67 | 1016.2 |
| 20260506050738 | 17 | 103 | 0.0 | 3.2 | 0.00 | 0.00 | 0.00 | 65 | 1016.3 |
| 20260506050231 | 17 | 102 | 0.0 | 3.2 | 0.00 | 0.00 | 0.00 | 66 | 1016.3 |
| 20260506044713 | 17 | 101 | 0.0 | 1.6 | 0.00 | 0.00 | 0.00 | 63 | 1016.1 |
| 20260506044207 | 17 | 101 | 0.0 | 1.6 | 0.00 | 0.00 | 0.00 | 63 | 1016.2 |
| 20260506043701 | 17 | 102 | 0.0 | 1.6 | 0.00 | 0.00 | 0.00 | 64 | 1016.1 |
| 20260506043154 | 17 | 101 | 0.0 | 1.6 | 0.00 | 0.00 | 0.00 | 65 | 1016.0 |
| 20260506042649 | 17 | 102 | 0.0 | 0.0 | 0.00 | 0.00 | 0.00 | 65 | 1016.0 |
| 20260506042404 | 16 | 102 | 0.0 | 1.6 | 0.00 | 0.00 | 0.00 | 67 | 1015.9 |
| 20260506041637 | 16 | 102 | 0.0 | 1.6 | 0.00 | 0.00 | 0.00 | 66 | 1015.9 |
| 20260506041130 | 16 | 101 | 0.0 | 0.0 | 0.00 | 0.00 | 0.00 | 65 | 1015.8 |
| 20260506040851 | 16 | 102 | 0.0 | 0.0 | 0.00 | 0.00 | 0.00 | 67 | 1015.7 |
| 20260506040340 | 16 | 102 | 0.0 | 0.0 | 0.00 | 0.00 | 0.00 | 68 | 1015.7 |
| 20260506035613 | 15 | 101 | 0.0 | 0.0 | 0.00 | 0.00 | 0.00 | 68 | 1015.6 |
| 20260506035107 | 15 | 102 | 0.0 | 1.6 | 0.00 | 0.00 | 0.00 | 68 | 1015.6 |
| 20260506034601 | 15 | 102 | 0.0 | 3.2 | 0.00 | 0.00 | 0.00 | 68 | 1015.5 |
| 20260506034059 | 15 | 101 | 0.0 | 3.2 | 0.00 | 0.00 | 0.00 | 68 | 1015.6 |
| 20260506033552 | 15 | 102 | 0.0 | 0.0 | 0.00 | 0.00 | 0.00 | 68 | 1015.5 |
| 20260506033056 | 15 | 102 | 0.0 | 0.0 | 0.00 | 0.00 | 0.00 | 68 | 1015.6 |
| 20260506032552 | 15 | 102 | 0.0 | 1.6 | 0.00 | 0.00 | 0.00 | 68 | 1015.6 |
| 20260506032318 | 15 | 102 | 0.0 | 1.6 | 0.00 | 0.00 | 0.00 | 68 | 1015.5 |
| 20260506031549 | 15 | 104 | 0.0 | 1.6 | 0.00 | 0.00 | 0.00 | 68 | 1015.5 |
| 20260506031324 | 15 | 80 | 0.0 | 3.2 | 0.00 | 0.00 | 0.00 | 68 | 1015.5 |
| 20260506030549 | 15 | 80 | 0.0 | 3.2 | 0.00 | 0.00 | 0.00 | 68 | 1015.5 |
| 20260506030054 | 15 | 80 | 1.6 | 3.2 | 0.00 | 0.00 | 0.00 | 68 | 1015.5 |
| 20260506025548 | 15 | 80 | 0.0 | 3.2 | 0.00 | 0.00 | 0.00 | 69 | 1015.4 |
| 20260506025047 | 15 | 80 | 0.0 | 1.6 | 0.00 | 0.00 | 0.00 | 69 | 1015.4 |
| 20260506024546 | 15 | 80 | 0.0 | 1.6 | 0.00 | 0.00 | 0.00 | 69 | 1015.4 |
| 20260506024045 | 15 | 80 | 0.0 | 1.6 | 0.00 | 0.00 | 0.00 | 70 | 1015.4 |
| 20260506023545 | 15 | 80 | 0.0 | 1.6 | 0.00 | 0.00 | 0.00 | 70 | 1015.5 |
| 20260506023526 | 15 | 80 | 0.0 | 0.0 | 0.00 | 0.00 | 0.00 | 70 | 1015.5 |
| 20260506022543 | 15 | 80 | 0.0 | 0.0 | 0.00 | 0.00 | 0.00 | 70 | 1015.5 |
| 20260506022042 | 15 | 80 | 0.0 | 0.0 | 0.00 | 0.00 | 0.00 | 70 | 1015.6 |
| 20260506021551 | 15 | 80 | 0.0 | 1.6 | 0.00 | 0.00 | 0.00 | 70 | 1015.6 |
| 20260506021037 | 15 | 80 | 0.0 | 1.6 | 0.00 | 0.00 | 0.00 | 70 | 1015.6 |
| 20260506020536 | 15 | 80 | 0.0 | 0.0 | 0.00 | 0.00 | 0.00 | 70 | 1015.6 |
| 20260506020036 | 15 | 80 | 0.0 | 1.6 | 0.00 | 0.00 | 0.00 | 70 | 1015.6 |
| 20260506015528 | 15 | 80 | 0.0 | 1.6 | 0.00 | 0.00 | 0.00 | 70 | 1015.5 |
| 20260506015022 | 15 | 80 | 0.0 | 1.6 | 0.00 | 0.00 | 0.00 | 70 | 1015.5 |
| 20260506014517 | 15 | 80 | 0.0 | 3.2 | 0.00 | 0.00 | 0.00 | 69 | 1015.4 |
| 20260506014010 | 15 | 80 | 1.6 | 3.2 | 0.00 | 0.00 | 0.00 | 68 | 1015.5 |
| 20260506013507 | 16 | 343 | 1.6 | 4.8 | 0.00 | 0.00 | 0.00 | 69 | 1015.5 |
| 20260506013006 | 16 | 343 | 1.6 | 4.8 | 0.00 | 0.00 | 0.00 | 69 | 1015.4 |
| 20260506012505 | 16 | 310 | 3.2 | 9.7 | 0.00 | 0.00 | 0.00 | 68 | 1015.3 |
| 20260506012007 | 16 | 310 | 3.2 | 9.7 | 0.00 | 0.00 | 0.00 | 69 | 1015.4 |
| 20260506011501 | 16 | 293 | 1.6 | 6.4 | 0.00 | 0.00 | 0.00 | 71 | 1015.3 |
| 20260506011001 | 16 | 292 | 3.2 | 6.4 | 0.00 | 0.00 | 0.00 | 72 | 1015.4 |
| 20260506010458 | 16 | 292 | 4.8 | 8.0 | 0.00 | 0.00 | 0.00 | 72 | 1015.4 |
| 20260506005959 | 16 | 303 | 4.8 | 8.0 | 0.00 | 0.00 | 0.00 | 72 | 1015.3 |
| 20260506005458 | 16 | 308 | 4.8 | 11.3 | 0.00 | 0.00 | 0.00 | 73 | 1015.3 |
| 20260506005205 | 16 | 276 | 4.8 | 11.3 | 0.00 | 0.00 | 0.00 | 71 | 1015.3 |
| 20260506005047 | 16 | 315 | 4.8 | 11.3 | 0.00 | 0.00 | 0.00 | 72 | 1015.3 |
| 20260506004221 | 16 | 295 | 4.8 | 11.3 | 0.00 | 0.00 | 0.00 | 71 | 1015.3 |
| 20260506003459 | 16 | 290 | 4.8 | 11.3 | 0.00 | 0.00 | 0.00 | 72 | 1015.2 |
| 20260506002959 | 16 | 266 | 3.2 | 9.7 | 0.00 | 0.00 | 0.00 | 73 | 1015.2 |
| 20260506002457 | 16 | 268 | 3.2 | 9.7 | 0.00 | 0.00 | 0.00 | 73 | 1015.2 |
| 20260506001957 | 15 | 271 | 4.8 | 8.0 | 0.00 | 0.00 | 0.00 | 75 | 1015.2 |
| 20260506001453 | 15 | 273 | 4.8 | 9.7 | 0.00 | 0.00 | 0.00 | 76 | 1015.2 |
| 20260506000953 | 15 | 272 | 4.8 | 9.7 | 0.00 | 0.00 | 0.00 | 77 | 1015.2 |
| 20260506000452 | 16 | 283 | 4.8 | 8.0 | 0.00 | 0.00 | 0.00 | 79 | 1015.2 |
| 20260505235953 | 16 | 281 | 4.8 | 8.0 | 0.00 | 0.00 | 0.00 | 78 | 1015.2 |
| 20260505235452 | 16 | 258 | 4.8 | 6.4 | 0.00 | 0.00 | 0.00 | 78 | 1015.1 |
| 20260505234952 | 16 | 262 | 3.2 | 6.4 | 0.00 | 0.00 | 0.00 | 78 | 1015.0 |
| 20260505234937 | 16 | 276 | 4.8 | 9.7 | 0.00 | 0.00 | 0.00 | 78 | 1015.0 |
| 20260505233953 | 16 | 245 | 4.8 | 9.7 | 0.00 | 0.00 | 0.00 | 77 | 1015.0 |
| 20260505233453 | 17 | 257 | 4.8 | 8.0 | 0.00 | 0.00 | 0.00 | 74 | 1015.0 |
| 20260505232949 | 17 | 251 | 3.2 | 8.0 | 0.00 | 0.00 | 0.00 | 71 | 1015.0 |
| 20260505232708 | 17 | 272 | 1.6 | 3.2 | 0.00 | 0.00 | 0.00 | 61 | 1015.0 |
| 20260505232205 | 17 | 272 | 0.0 | 3.2 | 0.00 | 0.00 | 0.00 | 59 | 1015.0 |
| 20260505231449 | 17 | 272 | 0.0 | 0.0 | 0.00 | 0.00 | 0.00 | 59 | 1014.9 |
| 20260505231205 | 17 | 272 | 0.0 | 0.0 | 0.00 | 0.00 | 0.00 | 59 | 1014.9 |
| 20260505230448 | 17 | 272 | 0.0 | 0.0 | 0.00 | 0.00 | 0.00 | 60 | 1015.0 |
| 20260505225948 | 17 | 272 | 0.0 | 0.0 | 0.00 | 0.00 | 0.00 | 60 | 1014.9 |
| 20260505225448 | 17 | 272 | 0.0 | 0.0 | 0.00 | 0.00 | 0.00 | 61 | 1014.9 |
| 20260505224949 | 17 | 272 | 0.0 | 0.0 | 0.00 | 0.00 | 0.00 | 61 | 1015.0 |
| 20260505224444 | 17 | 272 | 0.0 | 0.0 | 0.00 | 0.00 | 0.00 | 64 | 1015.0 |
| 20260505223945 | 17 | 272 | 0.0 | 0.0 | 0.00 | 0.00 | 0.00 | 67 | 1015.1 |
| 20260505223922 | 17 | 272 | 0.0 | 0.0 | 0.00 | 0.00 | 0.00 | 69 | 1015.1 |
| 20260505222940 | 17 | 272 | 0.0 | 0.0 | 0.00 | 0.00 | 0.00 | 71 | 1015.1 |
| 20260505222438 | 17 | 272 | 0.0 | 0.0 | 0.00 | 0.00 | 0.00 | 71 | 1015.1 |
| 20260505221936 | 17 | 272 | 0.0 | 0.0 | 0.00 | 0.00 | 0.00 | 71 | 1015.0 |
| 20260505221435 | 17 | 272 | 0.0 | 0.0 | 0.00 | 0.00 | 0.00 | 71 | 1015.0 |
| 20260505220932 | 17 | 272 | 0.0 | 0.0 | 0.00 | 0.00 | 0.00 | 71 | 1015.0 |
| 20260505220432 | 17 | 272 | 0.0 | 0.0 | 0.00 | 0.00 | 0.00 | 72 | 1015.0 |
| 20260505215933 | 17 | 272 | 0.0 | 1.6 | 0.00 | 0.00 | 0.00 | 72 | 1014.9 |
| 20260505215433 | 17 | 272 | 1.6 | 4.8 | 0.00 | 0.00 | 0.00 | 72 | 1014.9 |
| 20260505214932 | 17 | 272 | 1.6 | 4.8 | 0.00 | 0.00 | 0.00 | 72 | 1014.9 |
| 20260505214430 | 17 | 272 | 1.6 | 4.8 | 0.00 | 0.00 | 0.00 | 72 | 1014.9 |
| 20260505213928 | 17 | 272 | 3.2 | 9.7 | 0.00 | 0.00 | 0.00 | 71 | 1014.9 |
| 20260505213428 | 18 | 272 | 3.2 | 9.7 | 0.00 | 0.00 | 0.00 | 71 | 1014.8 |
| 20260505212928 | 18 | 294 | 4.8 | 11.3 | 0.00 | 0.00 | 0.00 | 69 | 1014.8 |